Weather in Exeter

United Kingdom     50°43′08″N   3°30′39″W
temp.,
°C
wind,
m/s
gust,
m/s
humid.,
%
clouds,
%
prec.,
mm/h
press.,
hPa
HPBL,
m
22 january, sat
sat2200:00+2nw23928 0.0 103942
03:00+2nw34917 0.0 103970
06:00+2nw38920 0.0 1038162
09:00+3nw249148 0.0 1039112
12:00+7nw45755 0.0 1039551
15:00+7nnw34785 0.0 1037447
18:00+2nnw22915 0.0 103820
21:00+1nnw11935 0.0 103717
23 january, sun
sun2300:000nne11915 0.0 103716
03:000ne11900 0.0 103615
06:000wnw009120 0.0 103515
09:00+1e00915 0.0 103517
12:00+6se24808 0.0 1034393
15:00+6se348557 0.0 1032475
18:00+5ese229090 0.0 103249
21:00+4ese228788 0.0 103260
24 january, mon
mon2400:00+5e228785 0.0 103277
03:00+3ne229051 0.0 103249
06:00+4ne228753 0.0 103257
09:00+2n22930 0.0 103440
12:00+6ne23790 0.0 1035387
15:00+7ne23780 0.0 1035448
18:00+2nne22920 0.0 103625
21:00+1n22910 0.0 103827
25 january, tue
tue2500:00+1n22912 0.0 103825
03:00+1n22910 0.0 103820
06:00+1n22910 0.0 103822
09:00+2n11900 0.0 103924
12:00+7ne12750 0.0 1039296
15:00+8ene11750 0.0 1038334
18:00+4n11870 0.0 103815
21:00+3nnw11890 0.0 103815
26 january, wed
wed2600:00+2nw11885 0.0 103815
03:00+2nw11875 0.0 103815
06:00+1nnw22865 0.0 103715
09:00+2nnw1183100 0.0 103719
12:00+7wnw0073100 0.0 1037179
15:00+7sse007794 0.0 103664
18:00+3wnw11855 0.0 103515
21:00+2wnw11885 0.0 103514